Location: Champs
(48.8539°N, 2.6040°E)
Time: 21:52:22
(UTC+00:00)

SPOT 1 Rocket Y - Pass Details

Date: 24 August 2022
Orbit: 784 x 832 km, 98.5° (Epoch: 06 October)

Event Time Altitude Azimuth Distance (km) Brightness Sun altitude
Exits shadow 20:55:59 11° 194° (SSW) 2,320 7.7 -18.8°
Maximum altitude 21:00:47 41° 263° (W) 1,171 6.7 -19.4°
Drops below altitude 10° 21:05:49 10° 333° (NNW) 2,423 9.2 -20.0°
Sets 21:08:21 0° 341° (NNW) 3,367 10.0 -20.3°
